DLH577 FACT-EDDF

Flight info

Callsign DLH577
Flight time N/A
Altitude 35000
Route DCT CTV DCT KODES UN186 ATUPI/N0498F360 UM436 ANVAG UN187 VNA UR526 LIKAD/N0497F380 DCT RASOP UG861 ARASI DCT KOKAM UA604 AS UR978 MELOG/N0486F400 UR978 CSO UA605 CIRTA DCT ERETI DCT OMARD DCT NOSTA DCT NOPMU DCT ABESI DCT LADOL T163 EMPAX EMPAX5B
Aircraft B789/H-SDE1E2E3FGHIJ2J3J4J5M1RWXY/LB1D1

Departure

Time 2026-05-05 06:52
Airport Cape Town International Airport (FACT)

Arrival

Time N/A
Airport Frankfurt Main Airport (EDDF)
Time Latitude Longitude Altitude Speed Heading
2026-05-05 06:16 -33.96768 18.59764 172 ft 0 kts 255°
2026-05-05 06:42 -33.96766 18.59773 172 ft 3 kts 255°
2026-05-05 06:42 -33.96761 18.59797 172 ft 3 kts 255°
2026-05-05 06:43 -33.96757 18.59817 172 ft 3 kts 244°
2026-05-05 06:43 -33.96748 18.59833 172 ft 3 kts 214°
2026-05-05 06:43 -33.96734 18.59841 172 ft 3 kts 184°
2026-05-05 06:43 -33.96715 18.59840 172 ft 3 kts 169°
2026-05-05 06:44 -33.96697 18.59835 172 ft 1 kts 165°
2026-05-05 06:44 -33.96694 18.59834 172 ft 0 kts 164°
2026-05-05 06:45 -33.96695 18.59834 172 ft 0 kts 164°
2026-05-05 06:46 -33.96698 18.59836 172 ft 1 kts 165°
2026-05-05 06:46 -33.96703 18.59837 172 ft 1 kts 165°
2026-05-05 06:46 -33.96737 18.59848 172 ft 13 kts 165°
2026-05-05 06:46 -33.96841 18.59882 172 ft 16 kts 165°
2026-05-05 06:47 -33.96950 18.59917 172 ft 16 kts 165°
2026-05-05 06:47 -33.97062 18.59953 172 ft 17 kts 168°
2026-05-05 06:47 -33.97174 18.59980 172 ft 17 kts 166°
2026-05-05 06:47 -33.97287 18.60013 172 ft 17 kts 166°
2026-05-05 06:48 -33.97402 18.60052 172 ft 17 kts 163°
2026-05-05 06:48 -33.97513 18.60095 172 ft 17 kts 156°
2026-05-05 06:48 -33.97621 18.60152 172 ft 19 kts 161°
2026-05-05 06:48 -33.97770 18.60213 172 ft 23 kts 160°
2026-05-05 06:49 -33.97922 18.60280 172 ft 23 kts 160°
2026-05-05 06:49 -33.98076 18.60346 169 ft 24 kts 160°
2026-05-05 06:49 -33.98232 18.60413 167 ft 24 kts 160°
2026-05-05 06:49 -33.98395 18.60484 165 ft 25 kts 160°
2026-05-05 06:50 -33.98561 18.60555 163 ft 26 kts 161°
2026-05-05 06:50 -33.98730 18.60627 160 ft 25 kts 160°
2026-05-05 06:50 -33.98802 18.60719 161 ft 9 kts 79°
2026-05-05 06:50 -33.98778 18.60812 161 ft 13 kts 72°
2026-05-05 06:51 -33.98748 18.60863 161 ft 5 kts 26°
2026-05-05 06:51 -33.98687 18.60861 160 ft 10 kts 345°
2026-05-05 06:51 -33.98383 18.60766 161 ft 85 kts 345°
2026-05-05 06:51 -33.97576 18.60508 160 ft 156 kts 345°
2026-05-05 06:52 -33.96346 18.60107 327 ft 199 kts 340°
2026-05-05 06:52 -33.95030 18.59629 1286 ft 201 kts 343°
2026-05-05 06:52 -33.93641 18.59118 2274 ft 211 kts 342°
2026-05-05 06:52 -33.92144 18.58615 2807 ft 239 kts 353°
2026-05-05 06:53 -33.90439 18.58933 3459 ft 256 kts 16°
2026-05-05 06:53 -33.88700 18.59532 4555 ft 262 kts 13°
2026-05-05 06:53 -33.86911 18.59984 5591 ft 267 kts
2026-05-05 06:53 -33.85054 18.60343 6627 ft 273 kts
2026-05-05 06:54 -33.83156 18.60731 7588 ft 279 kts 10°
2026-05-05 06:54 -33.81225 18.61158 8426 ft 284 kts 10°
2026-05-05 06:54 -33.79288 18.61589 9286 ft 288 kts 10°
2026-05-05 06:54 -33.77296 18.62021 10105 ft 293 kts 10°
2026-05-05 06:55 -33.75208 18.62470 10402 ft 318 kts 10°
2026-05-05 06:55 -33.72955 18.62958 10544 ft 345 kts 10°
2026-05-05 06:55 -33.70489 18.63494 10683 ft 371 kts 10°
2026-05-05 06:55 -33.67929 18.64049 11507 ft 373 kts 10°
2026-05-05 06:56 -33.65381 18.64600 12287 ft 378 kts 10°
2026-05-05 06:56 -33.62765 18.65165 13080 ft 382 kts 10°
2026-05-05 06:56 -33.60126 18.65736 13862 ft 386 kts 10°